| time (UTC) | temp F | wind direction | speed knots | gust knots | rain 1hr in | rain 24hr in | rain mn in | humidity % | barometer mb |
| 20260507021043 | 57 | 302 | 1.7 | 9.6 | 0.00 | 0.11 | 0.11 | 95 | 1003.9 |
| 20260507020826 | 57 | 337 | 1.7 | 9.6 | 0.00 | 0.11 | 0.11 | 95 | 1003.8 |
| 20260507020736 | 57 | 252 | 0.9 | 6.1 | 0.00 | 0.11 | 0.11 | 95 | 1003.9 |
| 20260507020511 | 57 | 183 | 0.9 | 5.2 | 0.00 | 0.11 | 0.11 | 95 | 1004.1 |
| 20260507020438 | 57 | 221 | 1.7 | 7.0 | 0.00 | 0.11 | 0.11 | 94 | 1004.1 |
| 20260507014612 | 57 | 324 | 0.9 | 7.0 | 0.00 | 0.11 | 0.11 | 94 | 1004.0 |
| 20260507014050 | 57 | 176 | 1.7 | 7.8 | 0.00 | 0.11 | 0.11 | 94 | 1003.9 |
| 20260507013543 | 57 | 202 | 1.7 | 7.8 | 0.00 | 0.11 | 0.11 | 94 | 1003.7 |
| 20260507013031 | 57 | 337 | 1.7 | 9.6 | 0.00 | 0.11 | 0.11 | 94 | 1003.9 |
| 20260507012529 | 57 | 251 | 1.7 | 9.6 | 0.00 | 0.11 | 0.11 | 94 | 1003.9 |
| 20260507012146 | 57 | 267 | 1.7 | 10.4 | 0.00 | 0.11 | 0.11 | 94 | 1004.1 |
| 20260507012104 | 57 | 269 | 1.7 | 10.4 | 0.00 | 0.11 | 0.11 | 94 | 1004.0 |
| 20260507011709 | 57 | 312 | 2.6 | 10.4 | 0.00 | 0.11 | 0.11 | 94 | 1004.2 |
| 20260507011026 | 57 | 267 | 1.7 | 10.4 | 0.00 | 0.11 | 0.11 | 94 | 1004.1 |
| 20260507010514 | 57 | 56 | 1.7 | 10.4 | 0.00 | 0.11 | 0.11 | 94 | 1004.2 |
| 20260507010235 | 57 | 298 | 2.6 | 11.3 | 0.00 | 0.11 | 0.11 | 94 | 1004.2 |
| 20260507005519 | 57 | 283 | 2.6 | 11.3 | 0.00 | 0.11 | 0.11 | 94 | 1004.3 |
| 20260507005006 | 57 | 325 | 2.6 | 7.8 | 0.00 | 0.11 | 0.11 | 94 | 1004.1 |
| 20260507004516 | 57 | 15 | 2.6 | 7.0 | 0.00 | 0.11 | 0.11 | 94 | 1004.2 |
| 20260507004000 | 57 | 310 | 1.7 | 8.7 | 0.01 | 0.11 | 0.11 | 94 | 1004.1 |
| 20260507003455 | 57 | 281 | 1.7 | 8.7 | 0.01 | 0.11 | 0.11 | 94 | 1004.3 |
| 20260507002954 | 57 | 25 | 0.9 | 7.8 | 0.01 | 0.11 | 0.11 | 94 | 1004.3 |
| 20260507002450 | 57 | 14 | 0.9 | 7.8 | 0.01 | 0.11 | 0.11 | 94 | 1004.2 |
| 20260507001939 | 57 | 237 | 1.7 | 8.7 | 0.02 | 0.11 | 0.11 | 94 | 1004.1 |
| 20260507001436 | 57 | 346 | 2.6 | 8.7 | 0.02 | 0.11 | 0.11 | 94 | 1004.0 |
| 20260507000935 | 58 | 221 | 2.6 | 7.0 | 0.02 | 0.11 | 0.11 | 94 | 1004.0 |
| 20260507000438 | 58 | 281 | 2.6 | 8.7 | 0.03 | 0.11 | 0.11 | 94 | 1003.9 |
| 20260506235922 | 58 | 259 | 2.6 | 8.7 | 0.03 | 0.11 | 0.11 | 94 | 1003.9 |
| 20260506235426 | 58 | 251 | 2.6 | 8.7 | 0.03 | 0.11 | 0.11 | 94 | 1003.8 |
| 20260506234924 | 58 | 314 | 1.7 | 13.0 | 0.03 | 0.11 | 0.11 | 94 | 1003.8 |
| 20260506234443 | 58 | 289 | 1.7 | 13.0 | 0.04 | 0.11 | 0.11 | 94 | 1003.8 |
| 20260506233920 | 58 | 283 | 2.6 | 7.0 | 0.03 | 0.10 | 0.10 | 94 | 1003.8 |
| 20260506233426 | 58 | 283 | 1.7 | 13.0 | 0.03 | 0.10 | 0.10 | 94 | 1003.8 |
| 20260506233048 | 58 | 262 | 2.6 | 14.8 | 0.01 | 0.08 | 0.08 | 93 | 1003.8 |
| 20260506233025 | 58 | 300 | 1.7 | 13.9 | 0.02 | 0.09 | 0.09 | 93 | 1003.7 |
| 20260506232936 | 58 | 272 | 1.7 | 6.1 | 0.03 | 0.10 | 0.10 | 94 | 1003.7 |
| 20260506232551 | 58 | 273 | 1.7 | 13.0 | 0.03 | 0.10 | 0.09 | 93 | 1003.7 |
| 20260506231946 | 58 | 312 | 1.7 | 13.0 | 0.02 | 0.09 | 0.09 | 93 | 1003.7 |
| 20260506231629 | 58 | 272 | 1.7 | 13.9 | 0.02 | 0.09 | 0.09 | 93 | 1003.6 |
| 20260506230146 | 58 | 276 | 2.6 | 14.8 | 0.01 | 0.08 | 0.08 | 93 | 1003.9 |
| 20260506225804 | 58 | 331 | 2.6 | 7.8 | 0.01 | 0.08 | 0.08 | 93 | 1003.8 |
| 20260506225657 | 58 | 203 | 1.7 | 7.8 | 0.01 | 0.08 | 0.08 | 93 | 1003.9 |
| 20260506224650 | 58 | 215 | 2.6 | 7.8 | 0.00 | 0.07 | 0.07 | 93 | 1003.9 |
| 20260506224133 | 58 | 275 | 2.6 | 7.8 | 0.02 | 0.07 | 0.07 | 92 | 1004.1 |
| 20260506224050 | 58 | 283 | 1.7 | 7.8 | 0.00 | 0.07 | 0.07 | 93 | 1003.8 |
| 20260506223954 | 58 | 295 | 1.7 | 6.1 | 0.00 | 0.07 | 0.07 | 93 | 1003.9 |
| 20260506223355 | 59 | 10 | 1.7 | 7.0 | 0.02 | 0.07 | 0.07 | 92 | 1004.1 |
| 20260506223200 | 58 | 256 | 2.6 | 7.8 | 0.01 | 0.07 | 0.07 | 93 | 1003.8 |
| 20260506223151 | 58 | 327 | 2.6 | 7.8 | 0.01 | 0.07 | 0.07 | 93 | 1003.8 |
| 20260506223015 | 58 | 292 | 1.7 | 7.8 | 0.01 | 0.07 | 0.07 | 93 | 1003.9 |
| 20260506221524 | 58 | 111 | 2.6 | 7.8 | 0.01 | 0.07 | 0.07 | 93 | 1003.9 |
| 20260506220449 | 58 | 298 | 2.6 | 7.8 | 0.02 | 0.07 | 0.07 | 92 | 1004.2 |
| 20260506220119 | 59 | 26 | 1.7 | 7.8 | 0.02 | 0.07 | 0.07 | 92 | 1004.2 |
| 20260506214857 | 59 | 267 | 1.7 | 8.7 | 0.02 | 0.07 | 0.07 | 92 | 1004.2 |
| 20260506214438 | 59 | 269 | 2.6 | 13.9 | 0.02 | 0.07 | 0.07 | 92 | 1004.2 |
| 20260506214356 | 59 | 261 | 1.7 | 7.8 | 0.02 | 0.07 | 0.07 | 92 | 1004.2 |
| 20260506213353 | 59 | 302 | 2.6 | 13.9 | 0.02 | 0.07 | 0.07 | 92 | 1004.2 |
| 20260506212851 | 59 | 323 | 3.5 | 11.3 | 0.01 | 0.06 | 0.06 | 92 | 1004.4 |
| 20260506212351 | 59 | 237 | 3.5 | 11.3 | 0.01 | 0.06 | 0.06 | 91 | 1004.4 |
| 20260506211915 | 59 | 320 | 2.6 | 9.6 | 0.02 | 0.06 | 0.06 | 91 | 1004.5 |
| 20260506211836 | 59 | 310 | 2.6 | 8.7 | 0.02 | 0.06 | 0.05 | 91 | 1004.6 |
| 20260506211101 | 59 | 286 | 1.7 | 8.7 | 0.01 | 0.05 | 0.05 | 91 | 1004.5 |
| 20260506210342 | 59 | 246 | 1.7 | 8.7 | 0.01 | 0.05 | 0.05 | 91 | 1004.5 |
| 20260506205832 | 59 | 356 | 2.6 | 8.7 | 0.01 | 0.05 | 0.05 | 91 | 1004.4 |
| 20260506205623 | 59 | 183 | 2.6 | 7.0 | 0.01 | 0.05 | 0.05 | 91 | 1004.6 |
| 20260506205339 | 59 | 257 | 2.6 | 7.0 | 0.01 | 0.05 | 0.05 | 91 | 1004.6 |
| 20260506204957 | 59 | 263 | 2.6 | 7.0 | 0.01 | 0.05 | 0.05 | 91 | 1004.6 |
| 20260506203821 | 59 | 264 | 2.6 | 7.8 | 0.01 | 0.05 | 0.05 | 90 | 1004.7 |
| 20260506203335 | 59 | 219 | 1.7 | 7.8 | 0.02 | 0.05 | 0.05 | 90 | 1004.6 |
| 20260506202829 | 59 | 296 | 1.7 | 8.7 | 0.02 | 0.05 | 0.05 | 90 | 1004.8 |
| 20260506202324 | 59 | 320 | 1.7 | 8.7 | 0.03 | 0.05 | 0.04 | 90 | 1004.8 |
| 20260506201821 | 59 | 352 | 1.7 | 8.7 | 0.02 | 0.04 | 0.04 | 90 | 1004.9 |
| 20260506201608 | 60 | 305 | 1.7 | 7.0 | 0.02 | 0.04 | 0.04 | 89 | 1004.9 |
| 20260506201407 | 60 | 304 | 1.7 | 8.7 | 0.02 | 0.04 | 0.04 | 89 | 1004.9 |
| 20260506200545 | 60 | 345 | 2.6 | 8.7 | 0.03 | 0.04 | 0.04 | 89 | 1004.9 |
| 20260506195812 | 60 | 218 | 2.6 | 7.8 | 0.03 | 0.04 | 0.04 | 88 | 1004.8 |
| 20260506195317 | 60 | 271 | 2.6 | 9.6 | 0.03 | 0.04 | 0.04 | 88 | 1004.8 |
| 20260506194819 | 60 | 285 | 1.7 | 9.6 | 0.04 | 0.04 | 0.04 | 89 | 1004.8 |
| 20260506194304 | 60 | 282 | 1.7 | 6.1 | 0.04 | 0.04 | 0.04 | 88 | 1004.9 |
| 20260506193758 | 60 | 335 | 2.6 | 6.1 | 0.04 | 0.04 | 0.04 | 88 | 1004.7 |
| 20260506193258 | 60 | 268 | 1.7 | 6.1 | 0.03 | 0.03 | 0.03 | 87 | 1004.8 |
| 20260506192753 | 60 | 235 | 1.7 | 6.1 | 0.03 | 0.03 | 0.03 | 86 | 1004.9 |
| 20260506192305 | 61 | 279 | 1.7 | 12.2 | 0.02 | 0.02 | 0.02 | 85 | 1005.2 |
| 20260506192029 | 61 | 293 | 1.7 | 12.2 | 0.02 | 0.02 | 0.02 | 85 | 1005.1 |
| 20260506191306 | 61 | 251 | 2.6 | 12.2 | 0.02 | 0.02 | 0.02 | 84 | 1005.1 |
| 20260506190758 | 61 | 27 | 1.7 | 12.2 | 0.02 | 0.02 | 0.02 | 82 | 1005.1 |
| 20260506190318 | 62 | 279 | 2.6 | 9.6 | 0.01 | 0.01 | 0.01 | 81 | 1005.2 |
| 20260506190036 | 62 | 202 | 3.5 | 10.4 | 0.01 | 0.01 | 0.01 | 79 | 1005.2 |
| 20260506185720 | 64 | 308 | 2.6 | 10.4 | 0.00 | 0.00 | 0.00 | 76 | 1005.3 |
| 20260506185627 | 63 | 271 | 2.6 | 10.4 | 0.01 | 0.01 | 0.00 | 77 | 1005.3 |
| 20260506184252 | 64 | 318 | 2.6 | 10.4 | 0.00 | 0.00 | 0.00 | 74 | 1005.4 |
| 20260506183740 | 65 | 168 | 2.6 | 10.4 | 0.00 | 0.00 | 0.00 | 73 | 1005.3 |
| 20260506183245 | 65 | 121 | 1.7 | 10.4 | 0.00 | 0.00 | 0.00 | 72 | 1005.3 |
| 20260506182743 | 66 | 260 | 2.6 | 10.4 | 0.00 | 0.00 | 0.00 | 72 | 1005.3 |
| 20260506182235 | 66 | 312 | 3.5 | 10.4 | 0.00 | 0.00 | 0.00 | 70 | 1005.4 |
| 20260506181807 | 67 | 6 | 2.6 | 10.4 | 0.00 | 0.00 | 0.00 | 68 | 1005.3 |
| 20260506181302 | 68 | 220 | 1.7 | 7.0 | 0.00 | 0.00 | 0.00 | 66 | 1005.5 |
| 20260506180831 | 68 | 308 | 2.6 | 12.2 | 0.00 | 0.00 | 0.00 | 64 | 1005.5 |
| 20260506180813 | 67 | 294 | 3.5 | 13.9 | 0.00 | 0.00 | 0.00 | 66 | 1005.5 |
| 20260506180408 | 68 | 258 | 4.3 | 13.9 | 0.00 | 0.00 | 0.00 | 65 | 1005.4 |
| 20260506175418 | 71 | 210 | 3.5 | 15.6 | 0.00 | 0.00 | 0.00 | 60 | 1005.8 |
| 20260506175412 | 70 | 60 | 4.3 | 12.2 | 0.00 | 0.00 | 0.00 | 59 | 1005.9 |
| 20260506175258 | 69 | 161 | 3.5 | 12.2 | 0.00 | 0.00 | 0.00 | 63 | 1005.5 |
| 20260506174924 | 69 | 277 | 3.5 | 13.9 | 0.00 | 0.00 | 0.00 | 61 | 1005.4 |
| 20260506174910 | 71 | 294 | 3.5 | 14.8 | 0.00 | 0.00 | 0.00 | 60 | 1005.6 |
| 20260506174816 | 69 | 190 | 4.3 | 13.9 | 0.00 | 0.00 | 0.00 | 61 | 1005.6 |
| 20260506174748 | 71 | 284 | 4.3 | 14.8 | 0.00 | 0.00 | 0.00 | 58 | 1005.7 |
| 20260506174725 | 71 | 308 | 3.5 | 14.8 | 0.00 | 0.00 | 0.00 | 58 | 1005.7 |
| 20260506174711 | 72 | 303 | 3.5 | 10.4 | 0.00 | 0.00 | 0.00 | 57 | 1005.8 |
| 20260506174705 | 72 | 281 | 3.5 | 15.6 | 0.00 | 0.00 | 0.00 | 59 | 1005.6 |
| 20260506173944 | 70 | 34 | 3.5 | 13.9 | 0.00 | 0.00 | 0.00 | 61 | 1005.5 |
| 20260506173326 | 70 | 252 | 3.5 | 13.9 | 0.00 | 0.00 | 0.00 | 59 | 1005.7 |
| 20260506172342 | 70 | 306 | 4.3 | 14.8 | 0.00 | 0.00 | 0.00 | 59 | 1005.5 |
| 20260506170323 | 72 | 275 | 3.5 | 10.4 | 0.00 | 0.00 | 0.00 | 56 | 1005.7 |
| 20260506165950 | 72 | 354 | 4.3 | 10.4 | 0.00 | 0.00 | 0.00 | 56 | 1005.4 |
| 20260506164044 | 70 | 21 | 4.3 | 13.9 | 0.00 | 0.00 | 0.00 | 60 | 1006.2 |
| 20260506163801 | 70 | 225 | 3.5 | 11.3 | 0.00 | 0.00 | 0.00 | 59 | 1006.0 |
| 20260506163415 | 71 | 347 | 3.5 | 14.8 | 0.00 | 0.00 | 0.00 | 59 | 1006.1 |
| 20260506162749 | 70 | 92 | 4.3 | 14.8 | 0.00 | 0.00 | 0.00 | 58 | 1006.1 |
| 20260506161652 | 71 | 319 | 3.5 | 13.9 | 0.00 | 0.00 | 0.00 | 59 | 1006.2 |
| 20260506161211 | 70 | 205 | 3.5 | 15.6 | 0.00 | 0.00 | 0.00 | 59 | 1006.3 |
| 20260506160700 | 70 | 301 | 3.5 | 15.6 | 0.00 | 0.00 | 0.00 | 59 | 1006.3 |
| 20260506160205 | 70 | 254 | 3.5 | 13.0 | 0.00 | 0.00 | 0.00 | 60 | 1006.5 |
| 20260506155650 | 70 | 268 | 3.5 | 13.0 | 0.00 | 0.00 | 0.00 | 60 | 1006.5 |
| 20260506155143 | 70 | 225 | 2.6 | 13.0 | 0.00 | 0.00 | 0.00 | 60 | 1006.5 |
| 20260506155000 | 70 | 202 | 2.6 | 11.3 | 0.00 | 0.00 | 0.00 | 61 | 1006.6 |
| 20260506154146 | 69 | 256 | 3.5 | 11.3 | 0.00 | 0.00 | 0.00 | 62 | 1006.7 |
| 20260506153650 | 69 | 244 | 3.5 | 13.0 | 0.00 | 0.00 | 0.00 | 62 | 1006.7 |
| 20260506153145 | 69 | 142 | 3.5 | 13.0 | 0.00 | 0.00 | 0.00 | 63 | 1006.8 |
| 20260506152640 | 69 | 250 | 3.5 | 13.0 | 0.00 | 0.00 | 0.00 | 62 | 1006.9 |
| 20260506152138 | 70 | 333 | 3.5 | 13.0 | 0.00 | 0.00 | 0.00 | 61 | 1007.0 |
| 20260506151626 | 70 | 262 | 3.5 | 11.3 | 0.00 | 0.00 | 0.00 | 63 | 1007.0 |
| 20260506151137 | 69 | 337 | 3.5 | 8.7 | 0.00 | 0.00 | 0.00 | 62 | 1007.0 |
| 20260506150632 | 69 | 350 | 3.5 | 8.7 | 0.00 | 0.00 | 0.00 | 63 | 1007.1 |
| 20260506150132 | 69 | 214 | 2.6 | 8.7 | 0.00 | 0.00 | 0.00 | 63 | 1007.1 |
| 20260506145629 | 69 | 254 | 2.6 | 8.7 | 0.00 | 0.00 | 0.00 | 63 | 1007.1 |
| 20260506145131 | 69 | 20 | 3.5 | 12.2 | 0.00 | 0.00 | 0.00 | 62 | 1007.0 |
| 20260506144626 | 69 | 199 | 4.3 | 12.2 | 0.00 | 0.00 | 0.00 | 63 | 1007.1 |
| 20260506144124 | 69 | 320 | 4.3 | 13.0 | 0.00 | 0.00 | 0.00 | 63 | 1007.2 |
| 20260506143623 | 69 | 315 | 3.5 | 13.0 | 0.00 | 0.00 | 0.00 | 63 | 1007.2 |
| 20260506143125 | 69 | 9 | 3.5 | 12.2 | 0.00 | 0.00 | 0.00 | 65 | 1007.0 |
| 20260506142613 | 69 | 287 | 3.5 | 12.2 | 0.00 | 0.00 | 0.00 | 64 | 1007.1 |
| 20260506142118 | 69 | 310 | 2.6 | 9.6 | 0.00 | 0.00 | 0.00 | 66 | 1007.0 |
| 20260506141620 | 68 | 272 | 3.5 | 10.4 | 0.00 | 0.00 | 0.00 | 66 | 1007.0 |
| 20260506141115 | 68 | 242 | 2.6 | 10.4 | 0.00 | 0.00 | 0.00 | 67 | 1007.0 |
| 20260506140622 | 68 | 237 | 2.6 | 10.4 | 0.00 | 0.00 | 0.00 | 67 | 1007.0 |
| 20260506140555 | 66 | 206 | 2.6 | 7.0 | 0.00 | 0.00 | 0.00 | 73 | 1007.2 |
| 20260506140526 | 67 | 241 | 1.7 | 11.3 | 0.00 | 0.00 | 0.00 | 69 | 1007.0 |
| 20260506140516 | 67 | 278 | 2.6 | 11.3 | 0.00 | 0.00 | 0.00 | 70 | 1007.0 |
| 20260506140228 | 68 | 320 | 3.5 | 10.4 | 0.00 | 0.00 | 0.00 | 68 | 1006.9 |
| 20260506135903 | 67 | 223 | 2.6 | 10.4 | 0.00 | 0.00 | 0.00 | 68 | 1007.0 |
| 20260506134316 | 66 | 306 | 2.6 | 7.8 | 0.00 | 0.00 | 0.00 | 70 | 1007.1 |
| 20260506133722 | 66 | 268 | 2.6 | 7.0 | 0.00 | 0.00 | 0.00 | 72 | 1007.0 |
| 20260506132608 | 65 | 236 | 2.6 | 7.0 | 0.00 | 0.00 | 0.00 | 72 | 1007.4 |
| 20260506132112 | 65 | 271 | 2.6 | 7.0 | 0.00 | 0.00 | 0.00 | 72 | 1007.6 |
| 20260506131617 | 65 | 282 | 2.6 | 7.0 | 0.00 | 0.00 | 0.00 | 73 | 1007.6 |
| 20260506131122 | 65 | 307 | 1.7 | 10.4 | 0.00 | 0.00 | 0.00 | 73 | 1007.7 |
| 20260506130725 | 64 | 269 | 1.7 | 8.7 | 0.00 | 0.00 | 0.00 | 75 | 1007.6 |
| 20260506130714 | 63 | 319 | 2.6 | 7.0 | 0.00 | 0.00 | 0.00 | 77 | 1007.7 |
| 20260506130628 | 65 | 253 | 2.6 | 10.4 | 0.00 | 0.00 | 0.00 | 73 | 1007.7 |
| 20260506130243 | 65 | 229 | 3.5 | 12.2 | 0.00 | 0.00 | 0.00 | 73 | 1007.6 |
| 20260506125718 | 65 | 45 | 2.6 | 12.2 | 0.00 | 0.00 | 0.00 | 73 | 1007.7 |
| 20260506125329 | 65 | 96 | 2.6 | 11.3 | 0.00 | 0.00 | 0.00 | 75 | 1007.5 |
| 20260506124104 | 63 | 358 | 1.7 | 8.7 | 0.00 | 0.00 | 0.00 | 77 | 1007.6 |
| 20260506123052 | 62 | 271 | 1.7 | 7.0 | 0.00 | 0.00 | 0.00 | 78 | 1007.7 |
| 20260506122938 | 62 | 217 | 2.6 | 8.7 | 0.00 | 0.00 | 0.00 | 79 | 1007.8 |
| 20260506122931 | 62 | 87 | 1.7 | 7.8 | 0.00 | 0.00 | 0.00 | 78 | 1007.9 |
| 20260506122855 | 62 | 303 | 2.6 | 8.7 | 0.00 | 0.00 | 0.00 | 79 | 1007.7 |
| 20260506122259 | 62 | 271 | 2.6 | 7.8 | 0.00 | 0.00 | 0.00 | 78 | 1007.8 |
| 20260506120549 | 61 | 279 | 2.6 | 8.7 | 0.00 | 0.00 | 0.00 | 80 | 1007.8 |
| 20260506120417 | 60 | 268 | 2.6 | 12.2 | 0.00 | 0.00 | 0.00 | 81 | 1008.0 |
| 20260506120107 | 61 | 238 | 2.6 | 9.6 | 0.00 | 0.00 | 0.00 | 80 | 1007.7 |
| 20260506115616 | 61 | 278 | 2.6 | 9.6 | 0.00 | 0.00 | 0.00 | 81 | 1007.7 |
| 20260506114537 | 60 | 17 | 2.6 | 12.2 | 0.00 | 0.00 | 0.00 | 82 | 1008.2 |
| 20260506114054 | 60 | 277 | 2.6 | 12.2 | 0.00 | 0.00 | 0.00 | 82 | 1008.0 |
| 20260506113551 | 60 | 331 | 1.7 | 12.2 | 0.00 | 0.00 | 0.00 | 82 | 1008.0 |
| 20260506113110 | 60 | 160 | 1.7 | 8.7 | 0.00 | 0.00 | 0.00 | 82 | 1008.2 |
| 20260506112544 | 60 | 279 | 1.7 | 8.7 | 0.00 | 0.00 | 0.00 | 82 | 1008.3 |
| 20260506112501 | 59 | 278 | 1.7 | 8.7 | 0.00 | 0.00 | 0.00 | 83 | 1008.2 |
| 20260506112448 | 59 | 290 | 1.7 | 7.8 | 0.00 | 0.00 | 0.00 | 83 | 1008.1 |
| 20260506112142 | 60 | 260 | 1.7 | 8.7 | 0.00 | 0.00 | 0.00 | 83 | 1008.2 |
| 20260506110526 | 59 | 283 | 2.6 | 8.7 | 0.00 | 0.00 | 0.00 | 83 | 1008.1 |
| 20260506110025 | 59 | 287 | 1.7 | 8.7 | 0.00 | 0.00 | 0.00 | 83 | 1007.9 |
| 20260506105516 | 59 | 287 | 1.7 | 5.2 | 0.00 | 0.00 | 0.00 | 84 | 1007.9 |
| 20260506105013 | 58 | 311 | 1.7 | 6.1 | 0.00 | 0.00 | 0.00 | 84 | 1008.0 |
| 20260506104511 | 58 | 265 | 2.6 | 7.0 | 0.00 | 0.00 | 0.00 | 84 | 1008.0 |
| 20260506104001 | 58 | 253 | 1.7 | 7.0 | 0.00 | 0.00 | 0.00 | 84 | 1008.0 |
| 20260506103725 | 58 | 267 | 1.7 | 6.1 | 0.00 | 0.00 | 0.00 | 84 | 1007.9 |
| 20260506103226 | 58 | 305 | 1.7 | 10.4 | 0.00 | 0.00 | 0.00 | 84 | 1008.0 |
| 20260506102502 | 58 | 322 | 1.7 | 10.4 | 0.00 | 0.00 | 0.00 | 84 | 1008.1 |
| 20260506102001 | 58 | 271 | 1.7 | 10.4 | 0.00 | 0.00 | 0.00 | 84 | 1008.0 |
| 20260506101808 | 58 | 266 | 1.7 | 7.0 | 0.00 | 0.00 | 0.00 | 84 | 1008.0 |
| 20260506101543 | 58 | 333 | 1.7 | 10.4 | 0.00 | 0.00 | 0.00 | 84 | 1008.0 |
| 20260506100500 | 58 | 311 | 0.9 | 6.1 | 0.00 | 0.00 | 0.00 | 83 | 1008.0 |
| 20260506095954 | 58 | 306 | 0.9 | 4.3 | 0.00 | 0.00 | 0.00 | 83 | 1007.9 |
| 20260506095901 | 58 | 243 | 1.7 | 8.7 | 0.00 | 0.00 | 0.00 | 83 | 1007.8 |
| 20260506095543 | 58 | 308 | 1.7 | 8.7 | 0.00 | 0.00 | 0.00 | 83 | 1007.9 |
| 20260506094446 | 58 | 269 | 2.6 | 8.7 | 0.00 | 0.00 | 0.00 | 83 | 1007.8 |
| 20260506093945 | 58 | 316 | 1.7 | 8.7 | 0.00 | 0.00 | 0.00 | 83 | 1007.7 |
| 20260506093720 | 58 | 311 | 0.9 | 7.8 | 0.00 | 0.00 | 0.00 | 83 | 1007.7 |
| 20260506092945 | 58 | 210 | 1.7 | 7.8 | 0.00 | 0.00 | 0.00 | 82 | 1007.8 |
| 20260506092452 | 58 | 258 | 1.7 | 7.8 | 0.00 | 0.00 | 0.00 | 82 | 1007.7 |
| 20260506091946 | 58 | 295 | 2.6 | 9.6 | 0.00 | 0.00 | 0.00 | 82 | 1007.7 |
| 20260506091450 | 59 | 275 | 2.6 | 9.6 | 0.00 | 0.00 | 0.00 | 82 | 1007.8 |
| 20260506090946 | 59 | 312 | 2.6 | 9.6 | 0.00 | 0.00 | 0.00 | 82 | 1007.7 |
| 20260506090434 | 59 | 269 | 2.6 | 11.3 | 0.00 | 0.00 | 0.00 | 82 | 1007.7 |
| 20260506085954 | 59 | 244 | 2.6 | 11.3 | 0.00 | 0.00 | 0.00 | 81 | 1007.7 |
| 20260506085806 | 59 | 277 | 2.6 | 9.6 | 0.00 | 0.00 | 0.00 | 81 | 1008.0 |
| 20260506085801 | 59 | 157 | 2.6 | 11.3 | 0.00 | 0.00 | 0.00 | 81 | 1007.9 |
| 20260506085528 | 59 | 301 | 2.6 | 11.3 | 0.00 | 0.00 | 0.00 | 81 | 1007.8 |
| 20260506084545 | 59 | 314 | 2.6 | 9.6 | 0.00 | 0.00 | 0.00 | 81 | 1007.9 |
| 20260506083423 | 59 | 283 | 2.6 | 9.6 | 0.00 | 0.00 | 0.00 | 81 | 1007.9 |
| 20260506083401 | 59 | 268 | 2.6 | 10.4 | 0.00 | 0.00 | 0.00 | 80 | 1007.8 |
| 20260506083354 | 59 | 289 | 2.6 | 12.2 | 0.00 | 0.00 | 0.00 | 80 | 1007.9 |
| 20260506081917 | 59 | 181 | 3.5 | 12.2 | 0.00 | 0.00 | 0.00 | 80 | 1007.9 |
| 20260506081416 | 59 | 293 | 4.3 | 11.3 | 0.00 | 0.00 | 0.00 | 80 | 1007.9 |
| 20260506081145 | 59 | 180 | 3.5 | 11.3 | 0.00 | 0.00 | 0.00 | 80 | 1007.8 |
| 20260506080413 | 59 | 276 | 2.6 | 8.7 | 0.00 | 0.00 | 0.00 | 79 | 1007.9 |
| 20260506073407 | 60 | 292 | 2.6 | 10.4 | 0.00 | 0.00 | 0.00 | 77 | 1008.0 |
| 20260506072859 | 60 | 327 | 3.5 | 11.3 | 0.00 | 0.00 | 0.00 | 77 | 1007.9 |
| 20260506072634 | 60 | 287 | 2.6 | 11.3 | 0.00 | 0.00 | 0.00 | 77 | 1007.8 |
| 20260506071905 | 60 | 277 | 2.6 | 10.4 | 0.00 | 0.00 | 0.00 | 77 | 1007.8 |
| 20260506071403 | 60 | 257 | 3.5 | 11.3 | 0.00 | 0.00 | 0.00 | 76 | 1007.7 |
| 20260506070913 | 60 | 204 | 3.5 | 11.3 | 0.00 | 0.00 | 0.00 | 76 | 1007.7 |
| 20260506070400 | 60 | 269 | 3.5 | 11.3 | 0.00 | 0.00 | 0.00 | 76 | 1007.7 |
| 20260506061846 | 62 | 258 | 1.7 | 11.3 | 0.00 | 0.00 | 0.00 | 73 | 1007.6 |
| 20260506061721 | 63 | 308 | 3.5 | 13.9 | 0.00 | 0.00 | 0.00 | 71 | 1007.6 |
| 20260506061711 | 62 | 285 | 2.6 | 12.2 | 0.00 | 0.00 | 0.00 | 73 | 1007.6 |
| 20260506061646 | 62 | 2 | 3.5 | 13.9 | 0.00 | 0.00 | 0.00 | 72 | 1007.6 |
| 20260506061006 | 62 | 263 | 4.3 | 13.9 | 0.00 | 0.00 | 0.00 | 72 | 1007.6 |
| 20260506060445 | 62 | 265 | 3.5 | 13.9 | 0.00 | 0.00 | 0.00 | 72 | 1007.7 |
| 20260506044813 | 63 | 310 | 3.5 | 13.0 | 0.00 | 0.00 | 0.00 | 68 | 1008.0 |
| 20260506044314 | 63 | 326 | 3.5 | 13.0 | 0.00 | 0.00 | 0.00 | 68 | 1008.2 |
| 20260506043802 | 63 | 307 | 3.5 | 11.3 | 0.00 | 0.00 | 0.00 | 68 | 1008.1 |
| 20260506043308 | 63 | 327 | 3.5 | 13.0 | 0.00 | 0.00 | 0.00 | 68 | 1008.2 |
| 20260506042837 | 63 | 310 | 3.5 | 13.9 | 0.00 | 0.00 | 0.00 | 67 | 1008.1 |
| 20260506042759 | 63 | 333 | 3.5 | 13.9 | 0.00 | 0.00 | 0.00 | 68 | 1008.0 |
| 20260506042432 | 63 | 183 | 4.3 | 13.9 | 0.00 | 0.00 | 0.00 | 67 | 1008.1 |
| 20260506041249 | 63 | 240 | 3.5 | 13.9 | 0.00 | 0.00 | 0.00 | 67 | 1008.1 |
| 20260506040746 | 63 | 242 | 3.5 | 14.8 | 0.00 | 0.00 | 0.00 | 67 | 1008.1 |
| 20260506040300 | 63 | 322 | 3.5 | 14.8 | 0.00 | 0.00 | 0.00 | 67 | 1008.1 |
| 20260506040217 | 63 | 29 | 3.5 | 14.8 | 0.00 | 0.00 | 0.00 | 66 | 1008.1 |
| 20260506035853 | 63 | 269 | 3.5 | 14.8 | 0.00 | 0.00 | 0.00 | 67 | 1008.0 |
| 20260506034757 | 63 | 300 | 3.5 | 13.9 | 0.00 | 0.00 | 0.00 | 66 | 1008.0 |
| 20260506034606 | 63 | 305 | 2.6 | 8.7 | 0.00 | 0.00 | 0.00 | 66 | 1007.8 |
| 20260506034550 | 63 | 154 | 3.5 | 13.0 | 0.00 | 0.00 | 0.00 | 66 | 1007.9 |
| 20260506034325 | 63 | 313 | 2.6 | 8.7 | 0.00 | 0.00 | 0.00 | 66 | 1007.9 |
| 20260506032735 | 63 | 263 | 3.5 | 11.3 | 0.00 | 0.00 | 0.00 | 66 | 1007.9 |
| 20260506032257 | 63 | 308 | 4.3 | 13.9 | 0.00 | 0.00 | 0.00 | 66 | 1007.7 |
| 20260506032236 | 62 | 286 | 3.5 | 13.9 | 0.00 | 0.00 | 0.00 | 66 | 1007.7 |
| 20260506031802 | 62 | 246 | 3.5 | 11.3 | 0.00 | 0.00 | 0.00 | 66 | 1007.7 |
| 20260506030727 | 63 | 353 | 3.5 | 13.9 | 0.00 | 0.00 | 0.00 | 66 | 1007.7 |
| 20260506030228 | 63 | 307 | 3.5 | 17.4 | 0.00 | 0.00 | 0.00 | 66 | 1007.9 |
| 20260506025828 | 63 | 357 | 3.5 | 19.1 | 0.00 | 0.00 | 0.00 | 66 | 1007.8 |
| 20260506025824 | 63 | 50 | 3.5 | 12.2 | 0.00 | 0.00 | 0.00 | 65 | 1007.9 |
| 20260506025749 | 63 | 310 | 4.3 | 17.4 | 0.00 | 0.00 | 0.00 | 66 | 1007.7 |
| 20260506025413 | 63 | 277 | 3.5 | 19.1 | 0.00 | 0.00 | 0.00 | 66 | 1007.7 |
| 20260506023819 | 63 | 225 | 4.3 | 13.0 | 0.00 | 0.00 | 0.00 | 66 | 1007.9 |
| 20260506023739 | 63 | 107 | 4.3 | 13.0 | 0.00 | 0.00 | 0.00 | 65 | 1007.8 |
| 20260506022715 | 63 | 11 | 3.5 | 14.8 | 0.00 | 0.00 | 0.00 | 65 | 1007.8 |
| 20260506022220 | 63 | 319 | 3.5 | 14.8 | 0.00 | 0.00 | 0.00 | 65 | 1008.0 |
| 20260506022120 | 62 | 271 | 4.3 | 17.4 | 0.00 | 0.00 | 0.00 | 65 | 1008.0 |
| 20260506021837 | 63 | 126 | 4.3 | 17.4 | 0.00 | 0.00 | 0.00 | 65 | 1007.8 |